TimeCDT,TemperatureF,Dew PointF,Humidity,Sea Level PressureIn,VisibilityMPH,Wind Direction,Wind SpeedMPH,Gust SpeedMPH,PrecipitationIn,Events,Conditions,WindDirDegrees,DateUTC
12:53 AM,52.0,32.0,47,29.76,10.0,SE,8.1,-,N/A,,Clear,140,2013-04-07 05:53:00
1:53 AM,52.0,34.0,50,29.75,10.0,SE,6.9,-,N/A,,Clear,140,2013-04-07 06:53:00
2:53 AM,48.0,35.1,61,29.74,10.0,Calm,Calm,-,N/A,,Clear,0,2013-04-07 07:53:00
3:53 AM,48.9,36.0,61,29.72,10.0,ESE,4.6,-,N/A,,Partly Cloudy,120,2013-04-07 08:53:00
4:53 AM,50.0,36.0,59,29.72,10.0,West,5.8,-,N/A,,Clear,260,2013-04-07 09:53:00
5:53 AM,48.0,36.0,63,29.72,10.0,South,5.8,-,N/A,,Clear,190,2013-04-07 10:53:00
6:53 AM,46.9,37.0,68,29.73,10.0,Calm,Calm,-,N/A,,Clear,0,2013-04-07 11:53:00
7:53 AM,48.0,37.9,68,29.72,10.0,Calm,Calm,-,N/A,,Clear,0,2013-04-07 12:53:00
8:53 AM,50.0,39.0,66,29.74,10.0,Calm,Calm,-,N/A,,Clear,0,2013-04-07 13:53:00
9:53 AM,57.9,42.1,56,29.70,10.0,SE,6.9,-,N/A,,Clear,140,2013-04-07 14:53:00
10:53 AM,64.9,45.0,48,29.68,10.0,South,9.2,-,N/A,,Clear,170,2013-04-07 15:53:00
11:53 AM,66.0,42.1,42,29.68,10.0,SW,6.9,-,N/A,,Clear,220,2013-04-07 16:53:00
12:53 PM,70.0,41.0,35,29.65,10.0,Variable,4.6,-,N/A,,Clear,0,2013-04-07 17:53:00
1:53 PM,72.0,37.9,29,29.61,10.0,Calm,Calm,-,N/A,,Clear,0,2013-04-07 18:53:00
2:53 PM,77.0,37.0,24,29.57,10.0,Calm,Calm,-,N/A,,Clear,0,2013-04-07 19:53:00
3:53 PM,78.1,35.1,21,29.55,10.0,Variable,3.5,-,N/A,,Clear,0,2013-04-07 20:53:00
4:53 PM,79.0,35.1,20,29.52,10.0,Variable,4.6,-,N/A,,Clear,0,2013-04-07 21:53:00
5:53 PM,79.0,32.0,18,29.52,10.0,South,6.9,-,N/A,,Partly Cloudy,180,2013-04-07 22:53:00
6:53 PM,77.0,33.1,20,29.52,10.0,SE,4.6,-,N/A,,Mostly Cloudy,140,2013-04-07 23:53:00
7:53 PM,73.9,37.9,27,29.53,10.0,ESE,9.2,-,N/A,,Partly Cloudy,110,2013-04-08 00:53:00
8:53 PM,71.1,37.9,30,29.54,10.0,ESE,9.2,-,N/A,,Partly Cloudy,110,2013-04-08 01:53:00
9:53 PM,64.9,39.9,40,29.55,10.0,SE,8.1,-,N/A,,Clear,130,2013-04-08 02:53:00
10:53 PM,62.1,46.0,56,29.55,10.0,SE,11.5,-,N/A,,Clear,140,2013-04-08 03:53:00
11:53 PM,61.0,46.0,58,29.53,10.0,SE,6.9,-,N/A,,Clear,130,2013-04-08 04:53:00